Tracking 18851 objects as of 25-Nov-2017
HD Live streaming from Space Station
objects crossing your sky now

FENGYUN 1C DEB

Track FENGYUN 1C DEB now!
10-day predictions


NORAD ID: 35196
Int'l Code: 1999-025DPC
Perigee: 690.2 km
Apogee: 1,031.6 km
Inclination: 98.8 °
Period: 102.0 minutes
Semi major axis: 7231 km
RCS: 0.0097 m2 (small)
Launch date: May 10, 1999
Source: People's Republic of China (PRC)
Launch site: Taiyaun Space Center, China (TSC)

Note: This is SATELLITE DEBRIS
aabbcc
Your satellite tracking list
Your tracking list is empty




NASA's NSSDC Master Catalog

Two Line Element Set (TLE):
1 35196U 99025DPC 17329.02445986  .00000385  00000-0  18137-3 0  9998
2 35196  98.8469  24.6677 0236057  96.5069  20.8914 14.11634722476901
Source of the keplerian elements: AFSPC